Location: Buckland
(65.9785°N, 161.1281°W)
Time: 23:10:52
(UTC+00:00)

Transit 4A - Pass Details

Date: 05 December 2020
Orbit: 864 x 980 km, 66.8° (Epoch: 20 January)

Event Time Altitude Azimuth Distance (km) Brightness Sun altitude
Rises 02:05:34 0° 307° (NW) 3,694 11.2 -6.9°
Reaches altitude 10° 02:08:28 10° 297° (WNW) 2,738 10.7 -7.1°
Maximum altitude 02:13:48 29° 241° (WSW) 1,712 10.3 -7.5°
Drops below altitude 10° 02:19:02 10° 184° (S) 2,683 11.0 -7.9°
Sets 02:21:52 0° 174° (S) 3,608 11.5 -8.1°
